Regional Weather Roundup
Issued by NWS

Home | Current Version | Previous Version | Graphics & Text | Print | Product List | Glossary On
Versions: 1 2 3 4 5 6 7 8 9 10 11 12 13 14 15 16 17 18 19 20 21 22 23 24 25 26 27 28 29 30 31 32 33 34 35 36 37 38 39 40 41 42 43 44 45 46 47 48 49 50
000
ASUS43 KLMK 222302
RWRKY
KENTUCKY REGIONAL WEATHER ROUNDUP
NATIONAL WEATHER SERVICE LOUISVILLE KY
700 PM EDT SAT JUL 22 2017

NOTE "FAIR" INDICATES FEW OR NO CLOUDS BELOW 12,000 FEET
WITH NO SIGNIFICANT WEATHER AND/OR OBSTRUCTIONS TO VISIBILITY.

KYZ001>023-026-027-061>063-070>075-230000-
WESTERN AND SOUTH CENTRAL KENTUCKY

CITY           SKY/WX    TMP DP  RH WIND       PRES   REMARKS
PADUCAH        SUNNY     93  74  53 SW9G17    29.84S HX 103
HENDERSON      SUNNY     93  74  53 SW15G21   29.81R HX 103
OWENSBORO      SUNNY     94  76  55 SW10      29.82R HX 106
HOPKINSVILLE   SUNNY     92  75  57 SW12      29.86S HX 104
BOWLING GREEN  SUNNY     95  73  48 SW12G21   29.85S HX 104
GLASGOW        NOT AVBL
$$

KYZ024-025-028>034-038-045-046-053-230000-
NORTH CENTRAL KENTUCKY

CITY           SKY/WX    TMP DP  RH WIND       PRES   REMARKS
LOUISVILLE/SDF PTSUNNY   94  73  50 W14       29.81S HX 103
LOUISVILLE/LOU MOSUNNY   94  73  50 SW10G21   29.82S HX 103
FORT KNOX      MOSUNNY   91  75  58 SW8G17    29.82F HX 102
$$

KYZ035>037-039>044-047>052-055>060-089>105-230000-
NORTHEAST KENTUCKY

CITY           SKY/WX    TMP DP  RH WIND       PRES   REMARKS
LEXINGTON      PTSUNNY   92  71  50 SW15      29.86R HX  98
COVINGTON      PTSUNNY   88  77  69 W9        29.83R HX 100
FRANKFORT      MOSUNNY   91  73  55 W8        29.83S HX  99
$$

KYZ054-064>069-076>088-106>120-230000-
SOUTHEAST KENTUCKY

CITY           SKY/WX    TMP DP  RH WIND       PRES   REMARKS
JACKSON        MOSUNNY   90  72  55 VRB3      29.89R HX  97
LONDON         SUNNY     92  69  47 W13       29.89R HX  97
SOMERSET       PTSUNNY   90  70  51 SW8G17    29.88S HX  95
MIDDLESBORO    SUNNY     91  74  57 S7        29.90S HX 100
MONTICELLO     CLEAR     90  75  61 W16       29.90S HX 100
$$





USA.gov is the U.S. government's official web portal to all federal, state and local government web resources and services.